This demonstration page uses our WeatherBlox Daily Observations layout. Learn more.

41.55636, -103.73856

Hourly Observations for October 28, 2020

Temp ( °F °C ) Dew Point ( °F °C ) Humidity (%) Winds ( mph kmh ) Pressure ( in mb ) Visibility ( mi km ) Precip ( " mm )
12:58 am 00:58 Clear 26 -3.2 17 -8.3 68 68 W 9 15 30.19 1022 10 16.0934 0 0
1:58 am 01:58 Clear 25 -3.7 18 -7.7 74 74 WSW 7 11 30.17 1022 10 16.0934 0 0
2:58 am 02:58 Clear 26 -3.4 18 -7.7 72 72 SW 12 19 30.14 1021 10 16.0934 0 0
3:58 am 03:58 Clear 21 -5.9 16 -9 79 79 WSW 6 9 30.13 1020 10 16.0934 0 0
4:58 am 04:58 Clear 24 -4.4 18 -7.7 78 78 W 7 11 30.13 1020 10 16.0934 0 0
5:58 am 05:58 Clear 26 -3.1 19 -7.3 73 73 W 9 15 30.15 1021 10 16.0934 0 0
8:58 am 08:58 Sunny 27 -2.8 20 -6.9 74 74 W 6 9 30.24 1024 10 16.0934 0 0
9:58 am 09:58 Sunny 33 0.3 23 -5.2 67 67 WNW 8 13 30.24 1024 10 16.0934 0 0
10:58 am 10:58 Sunny 33 0.5 24 -4.4 70 70 WSW 5 7 30.24 1024 10 16.0934 0 0
11:58 am 11:58 Sunny 39 3.8 27 -2.6 63 63 WSW 5 7 30.22 1023 10 16.0934 0 0
12:58 pm 12:58 Sunny 39 3.7 28 -2.1 66 66 WNW 14 22 30.22 1023 10 16.0934 0 0
1:58 pm 13:58 Sunny 40 4.3 28 -2.3 63 63 NW 13 20 30.19 1023 10 16.0934 0 0
2:58 pm 14:58 Sunny 39 3.8 28 -2 66 66 NW 16 26 30.19 1022 10 16.0934 0 0
3:58 pm 15:58 Sunny 39 4 28 -2 65 65 NW 17 28 30.21 1023 10 16.0934 0 0
4:58 pm 16:58 Sunny 39 3.9 29 -1.6 68 68 NW 16 26 30.21 1023 10 16.0934 0 0
5:58 pm 17:58 Clear 39 3.8 29 -1.7 68 68 WNW 13 20 30.23 1024 10 16.0934 0 0
6:58 pm 18:58 Mostly Cloudy 37 3 29 -1.5 73 73 W 7 11 30.24 1024 10 16.0934 0 0
7:58 pm 19:58 Clear 38 3.4 29 -1.4 71 71 Calm 30.28 1025 10 16.0934 0 0
8:58 pm 20:58 Clear 35 1.4 28 -2.1 78 78 SSW 5 7 30.3 1026 10 16.0934 0 0
9:58 pm 21:58 Cloudy 33 0.6 28 -2.2 82 82 SW 7 11 30.29 1026 10 16.0934 0 0
10:58 pm 22:58 Cloudy 35 1.9 30 -1.3 80 80 WSW 6 9 30.3 1026 10 16.0934 0 0
11:58 pm 23:58 Cloudy 36 2.3 30 -0.9 80 80 W 6 9 30.26 1025 10 16.0934 0 0

Powered by AerisWeather